Station 46088 (LLNR 16337) - NEW DUNGENESS - 17 NM NE of Port Angeles, WA Image indicating link to RSS feed of recent meteorological observations for station 46088

NOAA Environmental Lighted Buoy 46088


Conditions at 46088 as of
(9:40 pm PDT on 05/23/2024)
0440 GMT on 05/24/2024:
     

Click on the graph icon in the table below to see a time series plot of the last five days of that observation.

5-day plot - Wind Direction Wind Direction (WDIR): SW ( 220 deg true )
5-day plot - Wind Speed Wind Speed (WSPD): 13.6 kts
5-day plot - Wind Gust Wind Gust (GST): 15.5 kts
5-day plot - Wave Height Wave Height (WVHT): 1.3 ft
5-day plot - Average Wave Period Average Period (APD): 3.0 sec
5-day plot - Mean Wave Direction Mean Wave Direction (MWD):WSW ( 243 deg true )
5-day plot - Atmospheric Pressure Atmospheric Pressure (PRES):30.04 in
5-day plot - Air Temperature Air Temperature (ATMP): 51.3 °F
5-day plot - Water Temperature Water Temperature (WTMP): 50.7 °F
5-day plot - Dew Point Dew Point (DEWP): 46.9 °F
5-day plot - Wind Chill Wind Chill (CHILL): 46.0 °F
5-day plot - Wind Speed at 10 Meters Wind Speed at 10 meters (WSPD10M): 13.6 kts
5-day plot - Wind Speed at 20 Meters Wind Speed at 20 meters (WSPD20M): 15.5 kts
5-day plot -  Wind Speed, Wind Gust and Atmospheric Pressure Combined plot of Wind Speed, Gust, and Air Pressure
Supplemental Measurements
Highest 1-minute Wind Speed
Time (PDT)5-day plot - 1-Minute Wind Speed WSPD 5-day plot - 1-Minute Wind Direction WDIR
9:31 pm 13.6 kts-
Previous observations
TIME
(PDT)
5-day plot - Wind Direction
WDIR
 
5-day plot - Wind Speed
WSPD
kts
5-day plot - Wind Gust
GST
kts
5-day plot - Wave Height
WVHT
ft
5-day plot - Dominant Wave Period
DPD
sec
5-day plot - Average Wave Period
APD
sec
5-day plot - Mean Wave Direction
MWD
 
5-day plot - Atmospheric Pressure
PRES
in
5-day plot - Pressure Tendency
PTDY
in
5-day plot - Air Temperature
ATMP
°F
5-day plot - Water Temperature
WTMP
°F
5-day plot - Dew Point
DEWP
°F
5-day plot - Salinity
SAL
psu
5-day plot - Visibility
VIS
nmi
5-day plot - Tide (above MLLW)
TIDE
ft
2024-05-23 09:30 pm SW 13.6 17.5----30.04- 51.3 50.9 46.9---
2024-05-23 09:20 pm SW 13.6 17.5 1.3 32.9WSW30.04- 51.3 50.9 47.1---
2024-05-23 09:10 pm SW 13.6 17.5 1.3-2.9WSW30.04- 51.6 51.1 47.1---
2024-05-23 09:00 pm SW 11.7 13.6----30.04-0.03 52.0 50.7 47.1---
2024-05-23 08:50 pm SW 11.7 13.6 1.3 32.9WSW30.04- 52.5 50.7 47.1---
2024-05-23 08:40 pm SW 11.7 13.6 1.3-2.9WSW30.04- 52.2 50.9 47.1---
2024-05-23 08:30 pm SW 9.7 13.6----30.05- 52.0 50.5 47.3---
2024-05-23 08:20 pm SW 11.7 13.6 1.3 33.0WSW30.05- 52.3 51.1 46.9---
2024-05-23 08:10 pm SW 11.7 15.5 1.3-3.0WSW30.05- 52.9 51.1 46.6---
2024-05-23 08:00 pmWSW 11.7 17.5----30.05-0.05 52.9 50.2 46.6---
2024-05-23 07:50 pmWSW 11.7 17.5 1.3 33.0WSW30.05- 52.7 50.2 46.8---
2024-05-23 07:40 pm SW 11.7 13.6----30.05- 52.3 51.1 47.5---
2024-05-23 07:30 pm SW 11.7 15.5----30.06- 52.0 50.7 47.3---
2024-05-23 07:20 pm SW 13.6 15.5 1.0 22.9WSW30.06- 51.8 50.7 47.3---
2024-05-23 07:10 pm SW 13.6 15.5 1.0-2.9WSW30.06- 51.6 50.9 47.3---
2024-05-23 07:00 pm SW 13.6 15.5----30.06-0.06 51.6 51.3 47.3---
2024-05-23 06:50 pmSSW 13.6 15.5 1.0 63.7WSW30.06- 51.8 51.3 47.5---
2024-05-23 06:40 pmSSW 13.6 15.5----30.07- 51.8 51.1 47.1---
2024-05-23 06:30 pm SW 13.6 15.5----30.07- 52.0 51.3 46.8---
2024-05-23 06:20 pm SW 13.6 15.5 1.0 64.0WSW30.07- 52.3 51.4 46.8---
2024-05-23 06:10 pm SW 9.7 13.6 1.0-4.0WSW30.07- 52.3 51.4 47.3---
2024-05-23 06:00 pm SW 9.7 11.7----30.08-0.06 52.3 51.4 47.3---
2024-05-23 05:50 pmSSW 9.7 11.7 1.0 64.5WSW30.08- 52.2 52.2 46.9---
2024-05-23 05:40 pmSSW 7.8 9.7----30.08- 52.3 52.0 46.8---
2024-05-23 05:30 pm SW 9.7 9.7----30.09- 52.7 52.0 46.6---
2024-05-23 05:20 pm SW 9.7 9.7 0.7-4.0-30.09- 52.7 52.0 46.6---
2024-05-23 05:10 pm SW 7.8 7.8 0.7-4.0-30.09- 52.7 50.7 46.4---
2024-05-23 05:00 pmSSW 7.8 7.8----30.10-0.05 52.7 51.1 46.2---
2024-05-23 04:50 pmSSW 7.8 7.8 0.7-4.0-30.10- 52.7 51.6 46.2---
2024-05-23 04:40 pmSSW 5.8 7.8----30.10- 52.7 50.7 45.9---
2024-05-23 04:20 pmSSW 7.8 7.8 0.7-3.9-30.11- 52.7 51.1 45.3---
2024-05-23 04:10 pmSSW 7.8 7.8 0.7-3.9-30.11- 52.5 51.1 45.5---
2024-05-23 04:00 pm S 5.8 7.8----30.11-0.04 52.3 50.9 46.0---
2024-05-23 03:50 pm S 5.8 5.8 1.0 64.3WSW30.12- 52.2 50.4 46.4---
2024-05-23 03:40 pm S 5.8 5.8----30.12- 52.2 50.2 46.8---
2024-05-23 03:30 pm S 3.9 5.8----30.13- 51.8 51.3 46.8---
2024-05-23 03:20 pmSSE 5.8 5.8 1.0 74.6WSW30.13- 51.6 50.7 46.8---
2024-05-23 03:10 pm S 3.9 5.8 1.0-4.6WSW30.14- 51.4 50.7 46.6---
2024-05-23 03:00 pm S 3.9 5.8----30.14-0.02 51.3 50.7 46.4---
2024-05-23 02:50 pmSSE 5.8 5.8 1.3 74.9WSW30.14- 51.1 50.7 46.4---
2024-05-23 02:40 pmSSE 5.8 5.8----30.14- 51.1 50.5 46.4---
2024-05-23 02:30 pmSSE 5.8 5.8----30.14- 51.1 50.9 46.2---
2024-05-23 02:20 pmSSE 5.8 5.8 1.6 74.6WSW30.15- 51.1 51.3 46.0---
2024-05-23 02:10 pmSSE 5.8 5.8 1.6-4.6WSW30.15- 51.1 51.6 46.0---
2024-05-23 02:00 pmSSE 5.8 5.8----30.15-0.01 50.9 51.6 46.0---
2024-05-23 01:50 pmSSE 5.8 7.8 1.3 64.3 W30.15- 50.9 51.6 46.2---
2024-05-23 01:40 pmSSE 5.8 5.8----30.16- 50.9 50.5 46.2---
2024-05-23 01:30 pmSSE 5.8 7.8----30.16- 50.5 51.3 46.2---
2024-05-23 01:20 pmSSE 5.8 7.8 1.6 74.3 W30.15- 50.5 50.7 46.6---
2024-05-23 01:10 pmSSE 5.8 7.8 1.6-4.3 W30.16- 50.7 51.4 46.8---
2024-05-23 01:00 pm S 5.8 7.8----30.16+0.00 50.9 51.3 46.6---
2024-05-23 12:50 pm S 5.8 7.8 1.6 84.3WSW30.16- 50.7 51.3 46.4---
2024-05-23 12:40 pmSSE 5.8 7.8----30.16- 50.5 51.1 46.6---
2024-05-23 12:30 pm SE 7.8 9.7----30.16- 50.5 51.1 46.8---
2024-05-23 12:20 pm SE 9.7 9.7 1.3 84.4 W30.16- 50.4 50.9 46.6---
2024-05-23 12:10 pm SE 9.7 9.7 1.3-4.4 W30.16- 50.4 50.9 46.6---
2024-05-23 12:00 pm SE 9.7 11.7----30.16+0.00 50.5 50.5 46.6---
2024-05-23 11:50 am SE 7.8 9.7 1.3 84.6 W30.16- 50.5 50.4 46.4---
2024-05-23 11:40 am SE 7.8 9.7 1.3-4.6 W30.15- 50.5 50.4 46.4---
2024-05-23 11:30 amSSE 5.8 7.8----30.16- 50.7 50.2 46.6---
2024-05-23 11:20 amSSE 5.8 7.8 1.3 84.3 W30.16- 50.9 50.2 46.2---
2024-05-23 11:10 am S 5.8 7.8----30.16- 50.9 50.4 45.9---
2024-05-23 11:00 am S 5.8 7.8----30.16+0.02 50.7 50.2 45.5---
2024-05-23 10:50 am S 5.8 7.8 1.3 54.2 W30.16- 50.7 50.2 45.5---
2024-05-23 10:40 am S 5.8 7.8----30.16- 50.7 50.2 45.5---
2024-05-23 10:30 am S 7.8 9.7----30.16- 50.5 50.2 45.3---
2024-05-23 10:20 am S 5.8 9.7 1.3 54.2WSW30.16- 50.5 50.0 45.5---
2024-05-23 10:10 am S 7.8 9.7 1.3-4.2WSW30.16- 50.5 50.0 45.5---
2024-05-23 10:00 am S 7.8 9.7----30.16+0.04 50.5 50.0 45.5---
2024-05-23 09:50 amSSW 7.8 9.7 1.3 64.3 W30.16- 50.4 50.0 45.3---
2024-05-23 09:40 amSSW 7.8 11.7----30.16- 50.2 50.0 45.1---
2024-05-23 09:30 amSSW 7.8 9.7----30.16- 50.4 50.0 45.5---
2024-05-23 09:20 amSSW 7.8 9.7 1.3 54.0WSW30.16- 50.2 50.0 45.3---
2024-05-23 09:10 amSSW 7.8 11.7----30.16- 50.2 50.0 45.5---
2024-05-23 09:00 am S 7.8 9.7----30.16+0.04 50.2 50.2 45.9---
2024-05-23 08:50 am S 7.8 9.7 1.3 53.8WSW30.16- 50.2 50.2 45.9---
2024-05-23 08:40 am S 7.8 11.7 1.3-3.8WSW30.16- 50.2 50.2 45.9---
2024-05-23 08:30 am S 7.8 11.7----30.15- 50.2 50.0 45.9---
2024-05-23 08:20 am S 9.7 11.7 1.3 54.0WSW30.15- 50.2 50.2 45.9---
2024-05-23 08:10 am S 9.7 11.7 1.3-4.0WSW30.15- 50.2 50.2 45.9---
2024-05-23 08:00 amSSW 11.7 13.6----30.15+0.04 50.2 50.2 45.7---
2024-05-23 07:50 am SW 11.7 15.5 1.3 53.8WSW30.14- 50.2 50.2 45.7---
2024-05-23 07:40 am SW 11.7 15.5 1.3-3.8WSW30.14- 50.2 50.2 45.7---
2024-05-23 07:30 am SW 13.6 17.5----30.14- 50.2 50.0 45.7---
2024-05-23 07:20 amWSW 13.6 15.5 1.6 43.7WSW30.13- 50.0 50.0 45.7---
2024-05-23 07:10 amWSW 11.7 15.5 1.6-3.7WSW30.13- 50.0 50.0 45.9---
2024-05-23 07:00 amWSW 13.6 15.5----30.13+0.02 49.8 50.0 45.9---
2024-05-23 06:50 amWSW 13.6 17.5 1.6 43.7WSW30.12- 49.8 50.0 46.0---
2024-05-23 06:40 amWSW 13.6 17.5----30.12- 49.8 50.0 46.2---
2024-05-23 06:30 amWSW 13.6 15.5----30.12- 49.8 50.0 46.6---
2024-05-23 06:20 amWSW 13.6 17.5 1.6 43.5WSW30.12- 49.8 49.8 46.6---
2024-05-23 06:10 amWSW 13.6 17.5 1.6-3.5WSW30.12- 49.8 49.8 46.4---
2024-05-23 06:00 amWSW 15.5 19.4----30.11+0.02 49.6 49.8 46.2---
2024-05-23 05:50 amWSW 17.5 21.4 2.0 43.2WSW30.11- 49.6 49.8 46.4---
2024-05-23 05:40 amWSW 15.5 19.4 2.0-3.2WSW30.11- 49.6 49.8 46.6---
2024-05-23 05:30 amWSW 15.5 19.4----30.11- 49.6 49.6 46.6---
2024-05-23 05:20 amWSW 15.5 19.4 1.6 33.0WSW30.10- 49.6 49.6 46.6---
2024-05-23 05:10 amWSW 15.5 19.4----30.11- 49.8 49.6 46.6---
2024-05-23 05:00 amWSW 15.5 19.4----30.10+0.02 50.0 49.6 46.4---
2024-05-23 04:50 amWSW 15.5 19.4 1.3 32.7WSW30.10- 50.0 49.8 46.4---
2024-05-23 04:40 am SW 13.6 17.5----30.10- 50.0 49.8 46.8---
2024-05-23 04:30 am SW 13.6 17.5----30.10- 50.0 49.8 46.9---
2024-05-23 04:20 am SW 15.5 17.5 1.3 32.8WSW30.10- 50.0 49.8 47.3---
2024-05-23 04:10 amSSW 13.6 15.5 1.3-2.8WSW30.10- 50.2 49.8 47.5---
2024-05-23 04:00 amSSW 13.6 15.5----30.10+0.03 50.4 50.0 47.3---
2024-05-23 03:50 amSSW 11.7 15.5 1.0 32.7WSW30.09- 50.4 50.0 46.9---
2024-05-23 03:40 amSSW 11.7 15.5 1.0-2.7WSW30.10- 50.5 50.0 46.6---
2024-05-23 03:30 am SW 13.6 17.5----30.09- 50.5 50.0 46.8---
2024-05-23 03:20 am SW 13.6 17.5 1.0 32.9WSW30.09- 50.5 50.0 47.1---
2024-05-23 03:10 am SW 13.6 15.5 1.0-2.9WSW30.09- 50.7 50.0 46.9---
2024-05-23 03:00 am SW 11.7 15.5----30.09+0.03 50.9 50.2 46.8---
2024-05-23 02:50 am SW 11.7 13.6 1.0 33.0WSW30.09- 51.1 50.2 46.6---
2024-05-23 02:40 am SW 11.7 15.5----30.09- 51.4 50.2 46.0---
2024-05-23 02:30 am SW 9.7 15.5----30.09- 51.6 50.2 45.7---
2024-05-23 02:20 am SW 11.7 15.5 1.0 33.0WSW30.09- 51.3 50.4 45.9---
2024-05-23 02:10 am SW 11.7 13.6 1.0-3.0WSW30.09- 51.4 50.5 46.2---
2024-05-23 02:00 amWSW 11.7 15.5----30.08+0.02 51.6 50.4 46.0---
2024-05-23 01:50 amWSW 11.7 13.6 1.3 32.9WSW30.09- 51.3 50.0 46.0---
2024-05-23 01:40 amWSW 9.7 13.6----30.09- 51.3 50.2 46.4---
2024-05-23 01:30 amWSW 9.7 11.7----30.08- 51.1 50.2 46.8---
2024-05-23 01:20 amWSW 9.7 11.7 1.3 33.1 W30.08- 51.3 50.4 46.9---
2024-05-23 01:10 amWSW 9.7 13.6 1.3-3.1 W30.08- 51.4 50.5 46.8---
2024-05-23 01:00 amWSW 11.7 13.6----30.08+0.02 51.4 50.5 46.8---
2024-05-23 12:50 amWSW 11.7 13.6 1.6 33.1 W30.07- 51.4 50.5 46.8---
2024-05-23 12:40 am SW 11.7 15.5----30.07- 51.4 50.5 46.9---
2024-05-23 12:30 am SW 11.7 13.6----30.07- 51.4 50.5 46.9---
2024-05-23 12:20 am SW 11.7 17.5 1.6 33.1WSW30.07- 51.4- 46.8---
2024-05-23 12:10 am SW 13.6 15.5 1.6-3.1WSW30.07- 51.6 50.2 46.8---
2024-05-23 12:00 am SW 13.6 17.5----30.07+0.02 51.8 50.5 46.8---
2024-05-22 11:50 pm SW 15.5 19.4 2.0 33.1WSW30.06- 52.0 50.0 46.2---
2024-05-22 11:40 pm SW 15.5 17.5----30.06- 52.0 49.8 46.0---
2024-05-22 11:30 pm SW 13.6 17.5----30.06- 52.2 49.8 46.0---
2024-05-22 11:20 pm SW 13.6 15.5 1.6 33.1 SW30.06- 52.3 50.0 45.9---
2024-05-22 11:10 pm SW 15.5 17.5----30.06- 52.2 50.0 45.7---
2024-05-22 11:00 pm SW 15.5 17.5----30.06+0.03 52.3 50.0 45.5---
2024-05-22 10:50 pmSSW 13.6 17.5 1.6 33.1 SW30.06- 52.2 50.0 45.9---
2024-05-22 10:40 pmSSW 13.6 17.5----30.06- 52.0 50.0 46.0---
2024-05-22 10:30 pmSSW 13.6 17.5----30.06- 52.0 49.8 46.0---
2024-05-22 10:20 pmSSW 13.6 17.5 1.3 32.9WSW30.06- 51.8 49.6 46.4---
2024-05-22 10:10 pmSSW 13.6 17.5 1.3-2.9WSW30.06- 51.8 49.6 46.2---
2024-05-22 10:00 pmSSW 13.6 17.5----30.06+0.04 51.8 49.6 46.2---
2024-05-22 09:50 pmSSW 13.6 15.5 1.0 22.8 SW30.05- 51.6 49.6 46.2---

Detailed Wave Summary
for 46088 as of
(9:40 pm PDT on 05/23/2024)
0440 GMT on 05/24/2024:

These wave data are displayed in rounded times.

     

Click on the graph icon in the table below to see a time series plot of the last five days of that observation.

5-day plot - Significant Wave Height Significant Wave Height (WVHT): 1.3 ft
5-day plot - Average Wave Period Average Wave Period (APD): 3.0 sec
Previous observations
TIME
(PDT)
5-day plot - Wave Height
WVHT
ft
5-day plot - Swell Height
SwH
ft
5-day plot - Swell Period
SwP
sec
5-day plot - Swell Direction
SwD
 
5-day plot - Wind Wave Height
WWH
ft
5-day plot - Wind Wave Period
WWP
sec
5-day plot - Wind Wave Direction
WWD
 
5-day plot - Wave Steepness
STEEPNESS
 
5-day plot - Average Wave Period
APD
sec
2024-05-23 09:10 pm 1.3------ N/A 2.9
2024-05-23 08:40 pm 1.3------ N/A 2.9
2024-05-23 08:10 pm 1.3------ N/A 3.0
2024-05-23 07:40 pm 1.3------ N/A 3.0
2024-05-23 07:10 pm 1.0------ N/A 2.9
2024-05-23 06:40 pm 1.0------ N/A 3.7
2024-05-23 06:10 pm 1.0------ N/A 4.0
2024-05-23 05:40 pm 1.0------ N/A 4.5
2024-05-23 05:10 pm 0.7------ N/A 4.0
2024-05-23 04:40 pm 0.7------ N/A 4.0
2024-05-23 04:10 pm 0.7------ N/A 3.9
2024-05-23 03:40 pm 1.0------ N/A 4.3
2024-05-23 03:10 pm 1.0------ N/A 4.6
2024-05-23 02:40 pm 1.3------ N/A 4.9
2024-05-23 02:10 pm 1.6------ N/A 4.6
2024-05-23 01:40 pm 1.3------ N/A 4.3
2024-05-23 01:10 pm 1.6------ N/A 4.3
2024-05-23 12:40 pm 1.6------ N/A 4.3
2024-05-23 12:10 pm 1.3------ N/A 4.4
2024-05-23 11:40 am 1.3------ N/A 4.6
2024-05-23 11:10 am 1.3------ N/A 4.3
2024-05-23 10:40 am 1.3------ N/A 4.2
2024-05-23 10:10 am 1.3------ N/A 4.2
2024-05-23 09:40 am 1.3------ N/A 4.3
2024-05-23 09:10 am 1.3------ N/A 4.0
2024-05-23 08:40 am 1.3------ N/A 3.8
2024-05-23 08:10 am 1.3------ N/A 4.0
2024-05-23 07:40 am 1.3------ N/A 3.8
2024-05-23 07:10 am 1.6------ N/A 3.7
2024-05-23 06:40 am 1.6------ N/A 3.7
2024-05-23 06:10 am 1.6------ N/A 3.5
2024-05-23 05:40 am 2.0------ N/A 3.2
2024-05-23 05:10 am 1.6------ N/A 3.0
2024-05-23 04:40 am 1.3------ N/A 2.7
2024-05-23 04:10 am 1.3------ N/A 2.8
2024-05-23 03:40 am 1.0------ N/A 2.7
2024-05-23 03:10 am 1.0------ N/A 2.9
2024-05-23 02:40 am 1.0------ N/A 3.0
2024-05-23 02:10 am 1.0------ N/A 3.0
2024-05-23 01:40 am 1.3------ N/A 2.9
2024-05-23 01:10 am 1.3------ N/A 3.1
2024-05-23 12:40 am 1.6------ N/A 3.1
2024-05-23 12:10 am 1.6------ N/A 3.1
2024-05-22 11:40 pm 2.0------ N/A 3.1
2024-05-22 11:10 pm 1.6------ N/A 3.1
2024-05-22 10:40 pm 1.6------ N/A 3.1
2024-05-22 10:10 pm 1.3------ N/A 2.9

Plot of wave energy versus frequency (and period)


Ocean Current Data for 46088

Unit of Measure:   Time Zone:   
10:00 pm PDT 9:30 pm PDT 9:00 pm PDT 8:30 pm PDT 8:00 pm PDT 7:30 pm PDT 7:00 pm PDT 6:30 pm PDT
Depth
ft
Dir
°
Speed
kts
Dir
°
Speed
kts
Dir
°
Speed
kts
Dir
°
Speed
kts
Dir
°
Speed
kts
Dir
°
Speed
kts
Dir
°
Speed
kts
Dir
°
Speed
kts
5 106 0.21--------------
5 -- 88 0.37 60 0.22----------
5 ----------------

Previous 24 hours of ocean current data for 46088

Ocean Current Stick Plots are available in metric units only:

All Instruments - 1-day plot - ocean current 1-day plot     3-day plot - ocean current 3-day plot     5-day plot - ocean current 5-day plot